{"data":{"norad_id":69834,"intl_designator":"2026-154R","name":"STARLINK-37769","alt_names":[],"object_type":"PAYLOAD","status":"ACTIVE","operator":null,"country":"US","launch_date":"2026-07-05","launch_site_code":"AFETR","launch_vehicle":null,"mission":null,"orbit_class":"UNKNOWN","rcs_meters":null,"size_class":null,"mass_kg":null,"dimensions":null,"purposes":["comms"],"wikipedia_slug":null,"has_3d_model":false,"image_url":null,"decayed_at":null,"tle_current":{"epoch":"2026-09-19T22:32:22.267104Z","epoch_age_seconds":66258,"freshness":"FRESH","line1":"1 69834U 26154R   26262.93914661  .00018298  00000+0  55124-3 0  9992","line2":"2 69834  53.1604 334.2342 0000946 301.0425  59.0485 15.34406446 13154","mean_motion":15.34406446,"eccentricity":9.46e-5,"inclination_deg":53.1604,"raan_deg":334.2342,"arg_perigee_deg":301.0425,"mean_anomaly_deg":59.0485,"bstar":0.00055124,"rev_number":1315,"period_min":93.84736382944,"perigee_km":462.03693972944,"apogee_km":463.33122307804,"semimajor_km":6840.8210814037,"source":"CELESTRAK","updated_at":"2026-09-20T09:00:44.295704Z"}}}